Location: �clusier
(49.9361°N, 2.7869°E)
Time: 01:29:23
(UTC+00:00)

Cosmos 1331 Rocket - Pass Details

Date: 28 October 2021
Orbit: 749 x 778 km, 74.0° (Epoch: 30 November)

Event Time Altitude Azimuth Distance (km) Brightness Sun altitude
Rises 03:45:06 0° 343° (NNW) 3,233 7.2 -27.3°
Reaches altitude 10° 03:49:09 10° 14° (NNE) 2,311 6.8 -26.6°
Maximum altitude 03:51:10 12° 37° (NE) 2,170 6.9 -26.3°
Drops below altitude 10° 03:53:11 10° 60° (ENE) 2,315 7.4 -26.0°
Sets 03:57:15 0° 91° (E) 3,244 8.5 -25.3°
